Voltar ao catálogo

STARLINK-1169

AtivoComunicaçõesVLEO
NORAD 45061·PAYLOAD·🇺🇸 United States

Lançado Jan 29, 2020 de Cape Canaveral Space Force Station

Loading…

Próximas Passagens (próximas 24 horas)

TLE

AtualizadoSource: CelesTrak SupGP

Época: Sep 14, 2026, 13:13 UTC

1 45061C 20006T   26257.55118056  .00095942  00000+0  18187-2 0  2579
2 45061  53.1487 112.2715 0002508 173.9222 202.8106 15.47689398    16

Acompanhe STARLINK-1169 em tempo real com AllMySat

Download on the App Store